• En España
  • Lista de países
  • Para 7 días
  • Temperatura del agua
  • Mapa Satelital
  • El tiempo en el mapa
  • Informadores
  • user-avatar
    Iniciar sesión

    Tiempo cada hora Mamonovo

    Hoy, 22 Abril, Domingo

    Tiempo Temperatura Precipitaciones Viento Presión Humedad
    00:00 +3°C° 0 mm 6 mps 730 mmHg 78%
    01:00 +2°C° 0 mm 5 mps 731 mmHg 80%
    02:00 +3°C° 0 mm 4 mps 731 mmHg 82%
    03:00 +1°C° 0 mm 4 mps 731 mmHg 82%
    04:00 +1°C° 0 mm 4 mps 731 mmHg 83%
    05:00 0°C° 0 mm 4 mps 732 mmHg 84%
    06:00 +1°C° 0 mm 4 mps 732 mmHg 80%
    07:00 +1°C° 0 mm 4 mps 732 mmHg 76%
    08:00 +1°C° 0 mm 4 mps 732 mmHg 71%
    09:00 +3°C° 0 mm 4 mps 733 mmHg 68%
    10:00 +3°C° 0 mm 4 mps 733 mmHg 66%
    11:00 +3°C° 0 mm 4 mps 734 mmHg 63%
    12:00 +3°C° 0 mm 4 mps 735 mmHg 62%
    13:00 +4°C° 0 mm 4 mps 735 mmHg 60%
    14:00 +3°C° 0 mm 5 mps 736 mmHg 59%
    15:00 +3°C° 0 mm 4 mps 736 mmHg 59%
    16:00 +3°C° 0 mm 4 mps 737 mmHg 59%
    17:00 +3°C° 0 mm 4 mps 737 mmHg 59%
    18:00 +1°C° 0 mm 4 mps 738 mmHg 62%
    19:00 +1°C° 0 mm 3 mps 738 mmHg 65%
    20:00 +2°C° 0 mm 2 mps 739 mmHg 68%
    21:00 +1°C° 0 mm 2 mps 739 mmHg 72%
    22:00 -1°C° 0 mm 2 mps 740 mmHg 75%
    23:00 -2°C° 0 mm 2 mps 740 mmHg 79%

    Mañana, 23 Abril, Lunes

    Tiempo Temperatura Precipitaciones Viento Presión Humedad
    00:00 -2°C° 0 mm 2 mps 741 mmHg 81%
    01:00 -3°C° 0 mm 2 mps 741 mmHg 82%
    02:00 -3°C° 0 mm 2 mps 742 mmHg 84%
    03:00 -1°C° 0 mm 1 mps 742 mmHg 83%
    04:00 -1°C° 0 mm 1 mps 742 mmHg 82%
    05:00 -1°C° 0 mm 1 mps 743 mmHg 82%
    06:00 -2°C° 0 mm 2 mps 743 mmHg 71%
    07:00 +1°C° 0 mm 2 mps 743 mmHg 61%
    08:00 +2°C° 0 mm 2 mps 743 mmHg 51%
    09:00 +4°C° 0 mm 2 mps 743 mmHg 46%
    10:00 +5°C° 0 mm 2 mps 743 mmHg 41%
    11:00 +6°C° 0 mm 2 mps 743 mmHg 36%
    12:00 +7°C° 0 mm 2 mps 743 mmHg 35%
    13:00 +7°C° 0 mm 2 mps 743 mmHg 34%
    14:00 +8°C° 0 mm 2 mps 743 mmHg 34%
    15:00 +7°C° 0 mm 2 mps 742 mmHg 35%
    16:00 +7°C° 0 mm 2 mps 742 mmHg 37%
    17:00 +7°C° 0 mm 2 mps 742 mmHg 39%
    18:00 +6°C° 0 mm 1 mps 742 mmHg 47%
    19:00 +4°C° 0 mm 1 mps 742 mmHg 54%
    20:00 +1°C° 0 mm 0 mps 742 mmHg 61%
    21:00 +2°C° 0 mm 1 mps 742 mmHg 63%
    22:00 +1°C° 0 mm 1 mps 742 mmHg 64%
    23:00 +1°C° 0 mm 1 mps 742 mmHg 66%

    Pasado mañana, 24 Abril, Martes

    Tiempo Temperatura Precipitaciones Viento Presión Humedad
    00:00 +1°C° 0 mm 1 mps 742 mmHg 67%
    01:00 +1°C° 0 mm 1 mps 742 mmHg 68%
    02:00 -2°C° 0 mm 2 mps 742 mmHg 69%
    03:00 -2°C° 0 mm 2 mps 741 mmHg 69%
    04:00 -1°C° 0 mm 2 mps 741 mmHg 69%
    05:00 -1°C° 0 mm 2 mps 741 mmHg 68%
    06:00 +2°C° 0 mm 2 mps 741 mmHg 62%
    07:00 +4°C° 0 mm 2 mps 740 mmHg 55%
    08:00 +5°C° 0 mm 3 mps 740 mmHg 49%
    09:00 +7°C° 0 mm 3 mps 740 mmHg 47%
    10:00 +8°C° 0 mm 3 mps 739 mmHg 46%
    11:00 +8°C° 0 mm 4 mps 739 mmHg 44%
    12:00 +8°C° 0 mm 4 mps 739 mmHg 46%
    13:00 +10°C° 0 mm 4 mps 738 mmHg 48%
    14:00 +10°C° 0 mm 4 mps 738 mmHg 50%
    15:00 +9°C° 0,1 mm 3 mps 738 mmHg 56%
    16:00 +9°C° 0,1 mm 3 mps 737 mmHg 63%
    17:00 +8°C° 0,1 mm 2 mps 737 mmHg 70%
    18:00 +7°C° 0,2 mm 2 mps 737 mmHg 76%
    19:00 +7°C° 0,2 mm 2 mps 736 mmHg 82%
    20:00 +6°C° 0,2 mm 2 mps 736 mmHg 89%
    21:00 +6°C° 0 mm 2 mps 736 mmHg 91%
    22:00 +5°C° 0 mm 2 mps 736 mmHg 94%
    23:00 +5°C° 0 mm 2 mps 736 mmHg 96%

    25 Abril, Miércoles

    Tiempo Temperatura Precipitaciones Viento Presión Humedad
    00:00 +5°C° 0 mm 2 mps 736 mmHg 97%
    01:00 +5°C° 0 mm 2 mps 735 mmHg 97%
    02:00 +5°C° 0 mm 2 mps 735 mmHg 98%
    03:00 +5°C° 0 mm 2 mps 735 mmHg 97%
    04:00 +5°C° 0 mm 2 mps 735 mmHg 97%
    05:00 +5°C° 0 mm 2 mps 735 mmHg 96%
    06:00 +5°C° 0,1 mm 3 mps 734 mmHg 93%
    07:00 +5°C° 0,1 mm 3 mps 734 mmHg 89%
    08:00 +6°C° 0,1 mm 4 mps 734 mmHg 86%
    09:00 +6°C° 0 mm 4 mps 734 mmHg 85%
    10:00 +7°C° 0 mm 4 mps 734 mmHg 84%
    11:00 +7°C° 0 mm 4 mps 733 mmHg 84%
    12:00 +7°C° 0,2 mm 4 mps 733 mmHg 84%
    13:00 +8°C° 0,2 mm 4 mps 733 mmHg 84%
    14:00 +8°C° 0,2 mm 4 mps 732 mmHg 84%
    15:00 +8°C° 0,7 mm 4 mps 732 mmHg 83%
    16:00 +8°C° 0,7 mm 4 mps 732 mmHg 83%
    17:00 +8°C° 0,7 mm 4 mps 731 mmHg 83%
    18:00 +7°C° 0,1 mm 4 mps 732 mmHg 84%
    19:00 +6°C° 0,1 mm 4 mps 732 mmHg 86%
    20:00 +5°C° 0,1 mm 4 mps 732 mmHg 87%
    21:00 +5°C° 0 mm 3 mps 732 mmHg 88%
    22:00 +4°C° 0 mm 3 mps 733 mmHg 89%
    23:00 +3°C° 0 mm 3 mps 733 mmHg 90%

    26 Abril, Jueves

    Tiempo Temperatura Precipitaciones Viento Presión Humedad
    00:00 +3°C° 0 mm 3 mps 733 mmHg 91%
    01:00 +3°C° 0 mm 3 mps 733 mmHg 91%
    02:00 +3°C° 0 mm 3 mps 733 mmHg 91%
    03:00 +3°C° 0 mm 3 mps 733 mmHg 90%
    04:00 +3°C° 0 mm 3 mps 733 mmHg 90%
    05:00 +3°C° 0 mm 3 mps 733 mmHg 90%
    06:00 +4°C° 0 mm 3 mps 734 mmHg 88%
    07:00 +5°C° 0 mm 4 mps 734 mmHg 86%
    08:00 +5°C° 0 mm 4 mps 734 mmHg 85%
    09:00 +6°C° 0 mm 4 mps 734 mmHg 82%
    10:00 +7°C° 0 mm 4 mps 735 mmHg 78%
    11:00 +7°C° 0 mm 4 mps 735 mmHg 75%
    12:00 +10°C° 0,1 mm 4 mps 735 mmHg 67%
    13:00 +11°C° 0,1 mm 4 mps 735 mmHg 59%
    14:00 +12°C° 0,1 mm 4 mps 735 mmHg 51%
    15:00 +12°C° 0,2 mm 4 mps 735 mmHg 53%
    16:00 +12°C° 0,2 mm 4 mps 736 mmHg 56%
    17:00 +11°C° 0,2 mm 3 mps 736 mmHg 58%
    18:00 +10°C° 0 mm 3 mps 736 mmHg 65%
    19:00 +8°C° 0 mm 2 mps 736 mmHg 72%
    20:00 +6°C° 0 mm 2 mps 736 mmHg 79%
    21:00 +6°C° 0 mm 2 mps 737 mmHg 81%
    22:00 +6°C° 0 mm 2 mps 737 mmHg 83%
    23:00 +5°C° 0 mm 2 mps 737 mmHg 84%

    27 Abril, Viernes

    Tiempo Temperatura Precipitaciones Viento Presión Humedad
    00:00 +5°C° 0,1 mm 2 mps 737 mmHg 86%
    01:00 +6°C° 0,1 mm 2 mps 737 mmHg 87%
    02:00 +6°C° 0,1 mm 2 mps 737 mmHg 89%
    03:00 +6°C° 0,2 mm 2 mps 737 mmHg 91%
    04:00 +6°C° 0,2 mm 2 mps 737 mmHg 93%
    05:00 +6°C° 0,2 mm 2 mps 736 mmHg 95%
    06:00 +7°C° 0 mm 2 mps 737 mmHg 92%
    07:00 +8°C° 0 mm 2 mps 737 mmHg 88%
    08:00 +9°C° 0 mm 2 mps 737 mmHg 84%
    09:00 +10°C° 0 mm 2 mps 737 mmHg 77%
    10:00 +12°C° 0 mm 2 mps 737 mmHg 70%
    11:00 +13°C° 0 mm 2 mps 737 mmHg 63%
    12:00 +12°C° 0,4 mm 3 mps 737 mmHg 61%
    13:00 +12°C° 0,4 mm 3 mps 736 mmHg 59%
    14:00 +13°C° 0,4 mm 3 mps 736 mmHg 57%
    15:00 +12°C° 0,3 mm 3 mps 736 mmHg 59%
    16:00 +12°C° 0,3 mm 3 mps 736 mmHg 60%
    17:00 +11°C° 0,3 mm 3 mps 736 mmHg 62%
    18:00 +10°C° 0,1 mm 3 mps 736 mmHg 69%
    19:00 +8°C° 0,1 mm 3 mps 737 mmHg 76%
    20:00 +7°C° 0,1 mm 2 mps 737 mmHg 83%
    21:00 +5°C° 0 mm 3 mps 738 mmHg 85%
    22:00 +5°C° 0 mm 3 mps 738 mmHg 87%
    23:00 +4°C° 0 mm 3 mps 738 mmHg 88%
    Mostrar más